SCP
1 1 1 1 1 1 1 1 1 1 1 1 1 1 0 0 0 0 0 0 0 0 0 0 0 0 0 0 0 0 0 0 0 0 0 0 0 0 0 0 0 0 0
1 1 1 2 1 1 1 1 1 1 1 1 1 1 0 0 0 0 0 0 0 0 0 0 0 0 0 0 0 0 0 0 0 0 0 0 0 0 0 0 0 0 0
1 1 1 1 1 1 1 1 1 1 1 1 1 1 0 0 0 0 0 0 0 0 0 0 0 0 0 0 0 0 0 0 0 0 0 0 0 0 0 0 0 0 0
1 1 1 1 1 1 1 1 1 1 1 1 1 1 0 0 0 0 0 0 0 0 0 0 0 0 0 0 0 0 0 0 0 0 0 0 0 0 0 0 0 0 0
0 1 1 1 1 1 1 1 1 1 1 1 1 0 0 0 0 0 0 0 0 0 0 0 0 0 0 0 0 0 0 0 0 0 0 0 0 0 0 0 0 0 0
0 0 0 1 1 1 1 1 1 1 1 1 0 0 0 0 0 0 0 0 0 0 0 0 0 0 0 0 0 0 0 0 0 0 0 0 0 0 0 0 0 0 0
0 0 0 0 1 1 1 1 1 1 1 1 0 0 0 0 0 0 0 0 0 0 0 0 0 0 0 0 0 0 0 0 0 0 0 0 0 0 0 0 0 0 0
0 0 0 0 1 1 1 1 1 1 1 1 0 0 0 0 0 0 0 0 0 0 0 0 0 0 0 0 0 0 0 0 0 0 0 0 0 0 0 0 0 0 0
0 0 0 0 0 1 1 1 1 1 1 0 0 0 0 0 0 0 0 0 0 0 0 0 0 0 0 0 0 0 0 0 0 0 0 0 0 0 0 0 0 0 0
0 0 0 0 0 0 1 1 1 1 1 0 0 0 0 0 0 0 0 0 0 0 0 0 0 0 0 0 0 0 0 0 0 0 0 0 0 0 0 0 0 0 0
0 0 0 0 0 0 1 1 1 1 1 1 0 0 0 0 0 0 0 0 0 0 0 0 0 0 0 0 0 0 0 0 0 0 0 0 0 0 0 0 0 0 0
0 0 0 0 0 1 1 1 1 1 1 1 0 0 0 0 0 0 0 0 0 0 0 0 0 0 0 0 0 0 0 0 0 0 0 0 0 0 0 0 0 0 0
0 0 0 0 0 0 0 0 0 0 1 1 1 0 0 0 0 0 0 0 0 0 0 0 0 0 0 0 0 0 0 0 0 0 0 0 0 0 0 0 0 0 0
0 0 0 0 0 0 0 0 0 0 0 1 0 0 0 0 0 0 0 0 0 0 0 0 0 0 0 0 0 0 0 0 0 0 0 0 0 0 0 0 0 0 0
0 0 0 0 0 0 0 0 0 0 0 0 0 0 0 0 0 0 0 0 0 0 0 0 0 0 0 0 0 0 0 0 0 0 0 0 0 0 0 0 0 0 0
0 0 0 0 0 0 0 0 0 0 0 0 0 0 0 0 0 0 0 0 0 0 0 0 0 0 0 0 0 0 0 0 0 0 0 0 0 0 0 0 0 0 0
0 0 0 0 0 0 0 0 0 0 0 0 0 0 0 0 0 0 0 0 0 0 0 0 0 0 0 0 0 0 0 0 0 0 0 0 0 0 0 0 0 0 0
0 0 0 0 0 0 0 0 1 1 1 0 0 0 0 0 0 0 0 0 0 0 0 0 0 0 0 0 0 0 0 0 0 0 0 0 0 0 0 0 0 0 0
0 0 0 0 0 0 0 1 1 1 1 0 0 0 0 0 0 0 0 0 0 0 0 0 0 0 0 0 0 0 0 0 0 0 0 0 0 0 0 0 0 0 0
0 0 0 0 0 0 0 1 1 1 1 0 0 0 0 0 0 0 0 0 0 0 0 0 0 0 0 0 0 0 0 0 0 0 0 0 0 0 0 0 0 0 0
0 1 1 1 1 0 1 1 1 1 0 0 0 0 0 0 0 0 0 0 0 0 0 0 0 0 0 0 0 0 0 0 0 0 0 0 0 0 0 0 0 0 0
0 1 1 1 1 1 1 1 1 1 0 0 0 0 0 0 0 0 0 0 0 0 0 0 0 0 0 0 0 0 0 0 0 0 0 0 0 0 0 0 0 0 0
1 1 1 1 1 1 0 0 0 0 0 0 0 0 0 0 0 0 0 0 0 0 0 0 0 0 0 0 0 0 0 0 0 0 0 0 0 0 0 0 0 0 0
0 0 1 1 1 0 0 0 0 0 0 0 0 0 0 0 0 0 0 0 0 0 0 0 0 0 0 0 0 0 0 0 0 0 0 0 0 0 0 0 0 0 0
0 0 0 0 0 0 0 0 0 0 0 0 0 0 0 0 0 0 0 0 0 0 0 0 0 0 0 0 0 0 0 0 0 0 0 0 0 0 0 0 0 0 0
0 0 0 0 0 0 0 0 0 0 0 0 0 0 0 0 0 0 0 0 0 0 0 0 0 0 0 0 0 0 0 0 0 0 0 0 0 0 0 0 0 0 0
Wind_Speed
6 8 9 10 9 8 8 8 8 7 6 4 4 3 3 2 2 2 4 4 4 4 3 2 2 2 2 3 3 2 2 1 1 2 2 2 2 1 1 1 2 2 3
6 7 8 8 9 9 8 7 8 8 6 5 4 3 3 2 2 2 2 3 4 4 4 4 3 3 2 2 2 3 2 1 2 3 2 2 3 3 1 0 2 2 2
10 9 9 8 9 9 9 8 7 7 6 5 3 3 2 2 1 2 2 2 4 4 3 4 3 3 3 3 3 3 4 2 1 2 3 3 2 1 2 1 1 2 1
8 8 8 8 9 8 7 7 7 7 6 6 6 6 4 3 3 3 3 2 3 4 4 4 4 3 3 3 3 3 2 4 2 1 1 2 4 3 0 2 1 1 2
8 7 8 9 7 6 6 6 6 6 5 6 6 6 4 3 2 3 4 3 3 4 4 4 3 3 3 3 3 3 3 3 3 2 1 1 1 2 3 1 2 2 2
7 7 6 5 5 5 5 5 6 5 5 6 6 6 6 5 4 4 4 3 2 3 4 4 4 3 3 3 3 3 4 3 3 2 2 2 2 2 2 2 2 2 2
6 6 7 6 6 6 7 6 6 5 5 6 6 6 6 6 7 5 5 4 3 3 4 4 4 3 3 3 3 3 3 3 3 3 2 2 2 3 3 3 2 1 2
6 6 7 7 7 7 6 6 7 5 5 6 5 5 5 5 4 5 5 5 4 4 4 4 4 4 4 4 3 2 3 3 3 3 3 2 2 2 3 4 3 1 1
5 4 4 6 6 7 6 7 7 5 5 5 4 4 5 5 5 5 4 4 4 4 4 4 4 4 4 3 3 2 2 3 3 3 2 2 2 2 2 3 4 4 2
4 4 3 4 4 4 4 5 5 5 5 4 4 4 4 5 5 5 5 5 4 4 4 4 4 4 4 4 3 2 2 2 3 2 2 2 1 1 2 2 2 3 4
3 3 3 3 4 3 3 3 4 4 4 5 5 4 4 4 4 4 5 5 4 5 5 5 5 5 5 4 3 3 3 3 2 2 3 2 2 2 1 2 2 2 3
3 3 3 3 4 3 3 3 3 3 4 4 4 4 4 3 4 4 4 4 4 4 5 5 5 5 5 4 5 4 4 4 3 3 3 3 2 2 2 2 2 2 2
3 2 2 2 3 3 3 3 3 3 3 3 3 3 3 3 4 4 4 4 4 4 4 5 5 5 4 5 5 5 4 4 4 4 4 4 4 3 2 2 2 2 1
3 2 2 2 2 2 2 3 2 2 3 3 3 3 4 5 5 4 4 4 4 4 4 4 4 4 4 4 4 4 4 4 4 4 4 4 5 5 4 3 3 2 2
3 2 2 1 2 1 1 2 2 2 2 2 3 4 4 4 4 4 4 4 4 5 4 4 4 3 4 4 4 4 5 4 3 3 4 4 5 6 5 4 4 3 2
2 1 1 1 1 2 2 1 1 2 2 3 4 4 3 3 4 4 4 4 4 4 4 4 4 4 4 5 7 5 4 4 4 4 4 4 4 6 7 7 6 6 5
2 0 1 1 2 2 3 2 2 2 2 2 3 3 3 3 4 4 4 4 4 4 4 4 4 5 5 6 7 7 4 4 5 5 4 3 4 5 4 5 6 6 7
2 2 2 1 2 1 1 1 1 1 1 1 2 2 2 3 3 3 4 4 4 4 4 4 4 4 4 6 6 6 4 3 4 5 5 5 4 4 4 4 3 3 4
2 3 2 1 1 0 1 1 1 1 0 1 2 2 2 3 3 3 3 4 4 4 4 4 4 4 4 6 7 6 3 2 4 4 4 4 4 5 5 4 4 3 4
1 1 1 1 1 1 1 2 1 0 1 2 2 2 2 3 4 4 3 3 3 4 4 4 4 5 5 6 7 7 3 3 3 3 3 5 5 5 5 5 5 5 5
1 1 1 1 1 1 1 1 1 2 2 2 2 2 2 3 3 3 3 3 3 3 4 4 4 5 6 6 7 7 4 3 3 3 3 3 5 6 7 6 5 7 5
0 0 1 1 1 0 1 1 1 2 1 1 1 2 2 3 2 3 3 3 4 4 4 3 3 3 4 5 6 8 7 5 4 3 3 3 6 6 6 5 6 6 4
1 0 0 1 2 1 0 1 2 1 1 1 1 2 2 2 2 3 3 3 3 3 3 3 3 3 3 3 6 7 7 7 4 3 4 5 6 5 4 6 6 4 3
1 0 0 1 2 2 1 1 2 1 0 1 2 2 1 2 2 1 2 3 3 3 3 3 4 3 3 3 3 3 4 4 4 3 3 3 3 3 3 3 3 3 3
1 0 0 0 2 2 2 2 1 0 0 1 1 2 1 1 1 1 2 3 4 5 5 4 4 5 5 6 7 5 4 4 4 2 1 1 1 1 2 2 2 2 2
0 0 0 1 2 2 2 2 2 1 0 1 1 1 1 1 1 1 2 3 3 5 7 7 6 5 6 6 7 8 7 7 6 4 2 3 3 4 3 3 3 2 3
Wind_Direction
159 152 155 152 148 151 152 155 156 159 152 149 147 145 158 164 157 164 162 158 155 150 145 149 146 139 143 159 152 137 118 111 106 80 40 12 16 47 164 162 157 173 179
143 154 154 152 156 161 160 159 160 160 161 164 161 154 152 165 165 162 162 161 157 160 157 155 160 153 144 148 160 142 130 131 124 124 99 27 357 351 357 110 160 182 175
162 162 158 159 160 167 169 166 165 163 162 156 138 120 103 98 121 147 173 178 166 170 165 165 162 161 154 168 179 160 149 161 180 147 140 147 206 296 329 310 198 185 182
160 161 159 163 170 173 167 159 162 163 162 156 154 153 157 168 185 178 180 181 174 176 178 171 165 166 163 168 180 163 160 154 173 208 177 168 160 156 304 327 314 241 211
156 162 167 170 170 166 164 158 157 163 163 162 163 164 164 172 163 159 167 183 192 189 185 173 169 171 174 177 175 160 165 165 172 183 180 149 130 138 149 229 291 307 266
160 166 163 155 152 155 158 157 160 167 168 168 168 169 170 167 162 171 179 188 195 199 197 179 175 180 180 179 181 179 173 177 175 181 177 167 163 176 165 191 221 253 275
151 156 160 156 160 161 165 166 168 176 178 173 178 180 178 175 179 182 185 185 189 199 203 190 183 184 185 184 180 181 185 181 178 186 190 188 189 171 159 158 186 236 283
153 160 167 169 169 166 164 166 174 182 183 183 190 190 181 181 190 188 184 190 196 201 196 189 190 192 186 186 180 184 192 183 186 191 183 183 193 176 167 164 155 159 302
139 143 152 158 167 169 176 180 175 178 187 190 191 192 187 186 190 189 184 191 197 197 190 187 186 191 186 181 170 184 195 182 190 191 183 182 192 183 178 163 159 159 190
131 132 143 143 158 171 176 176 175 185 185 183 194 195 194 197 192 184 188 196 197 191 185 186 179 180 178 178 175 179 190 181 199 191 182 193 190 182 170 168 169 163 167
142 146 147 151 155 154 158 168 179 183 184 186 193 194 199 197 190 190 193 193 192 187 186 186 179 181 185 182 178 189 188 189 205 199 187 198 183 175 171 164 163 168 162
119 128 138 138 135 156 172 179 192 194 197 194 189 195 194 187 189 196 195 186 188 190 186 180 178 187 188 184 185 196 197 194 203 208 195 203 190 185 183 172 181 186 180
103 98 106 132 151 163 175 186 201 208 204 185 175 185 191 186 196 199 192 186 182 182 181 175 180 191 190 189 193 192 196 202 208 207 202 203 187 197 194 186 189 200 188
113 117 115 124 135 146 166 188 210 210 194 182 180 192 205 201 200 195 188 186 179 179 183 185 186 190 191 192 195 193 198 206 211 208 205 201 195 200 198 197 201 195 178
84 102 124 129 122 131 165 197 202 201 197 191 199 214 215 207 197 192 189 181 181 186 181 179 187 189 190 199 196 196 198 200 209 217 214 208 202 202 202 203 200 188 184
87 77 116 121 136 170 194 218 214 203 192 214 219 222 214 208 204 202 192 181 182 182 177 189 194 195 206 204 196 193 200 201 203 214 224 222 211 215 217 216 205 191 187
137 157 234 207 206 198 187 197 211 199 193 213 227 216 202 209 211 204 188 187 190 186 185 201 201 206 211 198 195 199 193 199 205 207 211 224 219 208 210 221 223 217 211
177 203 228 238 246 215 195 193 174 170 203 232 226 215 201 210 215 202 195 196 192 191 194 203 206 202 209 196 198 202 199 201 210 207 204 209 224 219 202 203 216 227 226
192 197 202 207 228 218 187 147 145 186 251 258 236 236 215 211 209 209 214 207 193 195 199 203 200 199 216 204 199 188 187 208 226 226 217 207 217 224 204 197 214 239 257
195 176 167 112 88 307 153 141 180 209 251 256 245 244 231 217 217 217 218 209 195 200 199 204 205 203 213 208 196 184 185 205 232 244 235 223 223 224 208 202 208 227 244
230 196 155 139 202 211 128 141 177 250 252 252 250 244 233 227 220 214 211 207 197 196 201 206 214 213 215 207 198 188 184 199 214 230 239 240 232 227 224 216 215 226 225
291 144 95 328 294 222 157 174 242 266 269 244 247 248 242 241 239 213 216 209 193 192 198 202 219 225 220 208 207 202 204 200 201 225 234 237 229 229 229 225 231 229 212
279 299 109 337 324 326 159 202 258 271 313 306 273 271 264 256 234 205 206 208 198 195 198 199 216 231 226 217 211 206 210 213 213 232 241 241 236 235 236 236 230 217 203
272 259 79 10 329 316 308 248 260 252 263 296 300 284 283 293 287 226 202 201 204 205 202 205 218 226 222 216 210 212 213 215 223 242 248 239 229 234 239 241 234 219 213
273 234 124 290 298 309 293 278 279 285 318 293 296 313 310 292 301 291 250 228 225 212 203 213 211 207 222 225 204 192 198 197 201 187 178 184 208 229 235 242 244 230 220
316 11 348 305 308 316 312 291 263 239 233 299 314 312 299 290 289 297 315 304 264 251 232 219 206 218 220 213 206 204 202 198 177 161 194 216 218 220 223 222 228 225 224